Погода в Гестахте

Германия     53°26′14″N   10°22′07″E
темп.,
°C
ветер,
м/с
пор.,
м/с
влажн.,
%
обл.,
%
осадки,
мм/ч
давл.,
гПа
погр.,
м
13 мая, чт
чт1323:00+11сз3790100 0.0 1010369
02:00+10сз3892100 0.0 1009332
05:00+9сз3796100 0.3 1008255
08:00+9сз2694100 0.3 1008289
11:00+10сз3694100 0.4 1008365
14:00+10сз3793100 0.6 1007498
17:00+10сз4897100 1.8 1006528
20:00+9сз3798100 4.0 1006438
14 мая, пт
пт1423:00+9зсз3799100 1.9 1006355
02:00+8зсз3898100 3.1 1006371
05:00+8зсз4898100 0.4 1005383
08:00+8з3897100 0.4 1006422
11:00+9з4893100 0.1 1007525
14:00+11зсз3791100 0.9 1007623
17:00+14сз3570100 0.3 10071037
20:00+11сз2479100 0.3 100797
15 мая, сб
сб1523:00+6зсз22926 0.0 100818
02:00+5юз11914 0.0 100810
05:00+5юз11915 0.0 100710
08:00+10ю12836 0.0 1007214
11:00+14ююз237437 0.3 1005982
14:00+14ю3478100 2.6 1004835
17:00+13юз468411 3.2 1003845
20:00+11юз379069 4.0 1002330
16 мая, вс
вс1623:00+8ююз399688 0.1 1002293
02:00+9ююз3896100 0.1 1002348
05:00+8ю3697100 0.1 1002267
08:00+9ююз479483 0.2 1002465
11:00+13юз686867 0.3 10021446
14:00+14зюз587037 0.8 10021348
17:00+13зюз478299 0.7 1001538
20:00+11юз2590100 2.1 1001197
17 мая, пн
пн1723:00+10ююз2493100 1.1 1002100
02:00+6ююз229521 1.1 100226
05:00+6ююв22957 0.0 100216
08:00+10ююв3592100 0.0 1002253
11:00+12ююз458099 0.3 1002765
14:00+14ююз357558 0.8 10021069
17:00+13юз468188 1.3 1003925
20:00+11юз379195 2.3 1003415